• In Hungary
  • List of Countries
  • For 7 days
  • Water Temperature
  • Satellite Maps
  • Weather Map
  • News
  • Weather Widgets
  • user-avatar
    Login

    Hourly Weather Staraya Smylovka

    Today, 18 July, Wednesday

    Time Temperature Precipitation Wind Pressure Humidity
    00:00 +20°C° 1.3 mm 3 mps 742 mmHg 95%
    01:00 +20°C° 1.3 mm 3 mps 742 mmHg 96%
    02:00 +19°C° 0.5 mm 4 mps 742 mmHg 96%
    03:00 +19°C° 0.5 mm 4 mps 742 mmHg 96%
    04:00 +19°C° 0 mm 4 mps 742 mmHg 94%
    05:00 +20°C° 0.1 mm 5 mps 742 mmHg 94%
    06:00 +20°C° 0.1 mm 5 mps 741 mmHg 93%
    07:00 +20°C° 0.1 mm 5 mps 741 mmHg 93%
    08:00 +21°C° 0.1 mm 5 mps 741 mmHg 90%
    09:00 +22°C° 0.1 mm 4 mps 741 mmHg 87%
    10:00 +23°C° 0.1 mm 4 mps 741 mmHg 84%
    11:00 +23°C° 0.5 mm 4 mps 741 mmHg 84%
    12:00 +25°C° 0.5 mm 5 mps 741 mmHg 84%
    13:00 +25°C° 0.5 mm 5 mps 741 mmHg 84%
    14:00 +23°C° 1.7 mm 4 mps 741 mmHg 87%
    15:00 +23°C° 1.7 mm 4 mps 741 mmHg 89%
    16:00 +22°C° 1.7 mm 3 mps 740 mmHg 92%
    17:00 +21°C° 0.8 mm 3 mps 741 mmHg 93%
    18:00 +21°C° 0.8 mm 3 mps 741 mmHg 94%
    19:00 +21°C° 0.8 mm 3 mps 741 mmHg 95%
    20:00 +20°C° 0.5 mm 2 mps 740 mmHg 95%
    21:00 +20°C° 0.5 mm 2 mps 740 mmHg 95%
    22:00 +19°C° 0.5 mm 2 mps 740 mmHg 96%
    23:00 +19°C° 0 mm 2 mps 740 mmHg 96%

    Tomorrow, 19 July, Thursday

    Time Temperature Precipitation Wind Pressure Humidity
    00:00 +19°C° 0 mm 1 mps 740 mmHg 96%
    01:00 +19°C° 0 mm 1 mps 740 mmHg 96%
    02:00 +19°C° 0 mm 1 mps 740 mmHg 95%
    03:00 +19°C° 0 mm 1 mps 740 mmHg 95%
    04:00 +19°C° 0 mm 1 mps 741 mmHg 95%
    05:00 +20°C° 0 mm 1 mps 741 mmHg 93%
    06:00 +20°C° 0 mm 1 mps 741 mmHg 92%
    07:00 +21°C° 0 mm 1 mps 741 mmHg 90%
    08:00 +23°C° 0.3 mm 1 mps 741 mmHg 86%
    09:00 +24°C° 0.3 mm 1 mps 741 mmHg 81%
    10:00 +25°C° 0.3 mm 1 mps 741 mmHg 76%
    11:00 +26°C° 0.9 mm 1 mps 741 mmHg 73%
    12:00 +27°C° 0.9 mm 2 mps 741 mmHg 69%
    13:00 +28°C° 0.9 mm 2 mps 742 mmHg 66%
    14:00 +28°C° 0.6 mm 2 mps 742 mmHg 66%
    15:00 +28°C° 0.6 mm 2 mps 742 mmHg 66%
    16:00 +28°C° 0.6 mm 2 mps 742 mmHg 67%
    17:00 +27°C° 0.4 mm 2 mps 742 mmHg 71%
    18:00 +27°C° 0.4 mm 1 mps 742 mmHg 75%
    19:00 +26°C° 0.4 mm 1 mps 742 mmHg 79%
    20:00 +25°C° 0.2 mm 1 mps 742 mmHg 81%
    21:00 +23°C° 0.2 mm 1 mps 742 mmHg 84%
    22:00 +22°C° 0.2 mm 1 mps 742 mmHg 86%
    23:00 +22°C° 0 mm 1 mps 742 mmHg 87%

    Day after tomorrow, 20 July, Friday

    Time Temperature Precipitation Wind Pressure Humidity
    00:00 +21°C° 0 mm 1 mps 743 mmHg 88%
    01:00 +21°C° 0 mm 1 mps 743 mmHg 89%
    02:00 +20°C° 0.1 mm 1 mps 743 mmHg 89%
    03:00 +20°C° 0.1 mm 1 mps 743 mmHg 90%
    04:00 +20°C° 0.1 mm 1 mps 743 mmHg 90%
    05:00 +19°C° 0 mm 0 mps 743 mmHg 88%
    06:00 +20°C° 0 mm 0 mps 743 mmHg 86%
    07:00 +21°C° 0 mm 0 mps 744 mmHg 84%
    08:00 +22°C° 0.1 mm 0 mps 744 mmHg 80%
    09:00 +25°C° 0.1 mm 1 mps 744 mmHg 77%
    10:00 +26°C° 0.1 mm 1 mps 744 mmHg 74%
    11:00 +27°C° 0.6 mm 1 mps 744 mmHg 71%
    12:00 +28°C° 0.6 mm 1 mps 744 mmHg 68%
    13:00 +28°C° 0.6 mm 1 mps 744 mmHg 65%
    14:00 +29°C° 0.2 mm 1 mps 744 mmHg 66%
    15:00 +29°C° 0.2 mm 2 mps 744 mmHg 66%
    16:00 +29°C° 0.2 mm 2 mps 744 mmHg 66%
    17:00 +28°C° 0.9 mm 2 mps 744 mmHg 73%
    18:00 +27°C° 0.9 mm 3 mps 744 mmHg 79%
    19:00 +26°C° 0.9 mm 3 mps 744 mmHg 85%
    20:00 +24°C° 0.1 mm 3 mps 744 mmHg 88%
    21:00 +22°C° 0.1 mm 3 mps 745 mmHg 91%
    22:00 +21°C° 0.1 mm 3 mps 745 mmHg 93%
    23:00 +21°C° 0.1 mm 3 mps 745 mmHg 94%

    21 July, Saturday

    Time Temperature Precipitation Wind Pressure Humidity
    00:00 +20°C° 0.1 mm 3 mps 745 mmHg 95%
    01:00 +20°C° 0.1 mm 3 mps 745 mmHg 95%
    02:00 +19°C° 0 mm 3 mps 745 mmHg 96%
    03:00 +19°C° 0 mm 3 mps 745 mmHg 96%
    04:00 +19°C° 0 mm 3 mps 745 mmHg 96%
    05:00 +19°C° 0.3 mm 4 mps 745 mmHg 95%
    06:00 +20°C° 0.3 mm 4 mps 745 mmHg 94%
    07:00 +20°C° 0.3 mm 4 mps 745 mmHg 94%
    08:00 +21°C° 0.1 mm 5 mps 745 mmHg 91%
    09:00 +22°C° 0.1 mm 5 mps 745 mmHg 89%
    10:00 +23°C° 0.1 mm 5 mps 746 mmHg 86%
    11:00 +25°C° 0.1 mm 5 mps 746 mmHg 83%
    12:00 +26°C° 0.1 mm 5 mps 746 mmHg 79%
    13:00 +26°C° 0.1 mm 6 mps 746 mmHg 76%
    14:00 +27°C° 0.1 mm 5 mps 746 mmHg 75%
    15:00 +27°C° 0.1 mm 5 mps 745 mmHg 75%
    16:00 +27°C° 0.1 mm 5 mps 745 mmHg 74%
    17:00 +26°C° 0.2 mm 5 mps 745 mmHg 77%
    18:00 +26°C° 0.2 mm 4 mps 745 mmHg 81%
    19:00 +25°C° 0.2 mm 4 mps 745 mmHg 84%
    20:00 +23°C° 0 mm 4 mps 746 mmHg 86%
    21:00 +22°C° 0 mm 4 mps 746 mmHg 88%
    22:00 +21°C° 0 mm 4 mps 746 mmHg 90%
    23:00 +20°C° 0 mm 5 mps 746 mmHg 89%

    22 July, Sunday

    Time Temperature Precipitation Wind Pressure Humidity
    00:00 +20°C° 0 mm 5 mps 746 mmHg 88%
    01:00 +19°C° 0 mm 5 mps 746 mmHg 87%
    02:00 +19°C° 0 mm 5 mps 746 mmHg 86%
    03:00 +17°C° 0 mm 5 mps 746 mmHg 85%
    04:00 +16°C° 0 mm 5 mps 746 mmHg 85%
    05:00 +17°C° 0 mm 5 mps 746 mmHg 85%
    06:00 +17°C° 0 mm 5 mps 746 mmHg 84%
    07:00 +17°C° 0 mm 6 mps 747 mmHg 84%
    08:00 +20°C° 0 mm 6 mps 747 mmHg 82%
    09:00 +21°C° 0 mm 6 mps 747 mmHg 80%
    10:00 +22°C° 0 mm 6 mps 747 mmHg 77%
    11:00 +23°C° 0 mm 7 mps 747 mmHg 75%
    12:00 +23°C° 0 mm 7 mps 747 mmHg 73%
    13:00 +24°C° 0 mm 7 mps 747 mmHg 71%
    14:00 +24°C° 0 mm 7 mps 746 mmHg 70%
    15:00 +24°C° 0 mm 7 mps 746 mmHg 68%
    16:00 +26°C° 0 mm 6 mps 746 mmHg 67%
    17:00 +24°C° 0 mm 6 mps 746 mmHg 69%
    18:00 +23°C° 0 mm 5 mps 747 mmHg 72%
    19:00 +23°C° 0 mm 4 mps 747 mmHg 75%
    20:00 +21°C° 0 mm 5 mps 747 mmHg 74%
    21:00 +20°C° 0 mm 5 mps 747 mmHg 73%
    22:00 +19°C° 0 mm 5 mps 747 mmHg 72%
    23:00 +17°C° 0 mm 5 mps 747 mmHg 71%

    23 July, Monday

    Time Temperature Precipitation Wind Pressure Humidity
    00:00 +17°C° 0 mm 5 mps 747 mmHg 71%
    01:00 +16°C° 0 mm 5 mps 748 mmHg 70%
    02:00 +15°C° 0 mm 5 mps 748 mmHg 72%
    03:00 +14°C° 0 mm 4 mps 748 mmHg 74%
    04:00 +13°C° 0 mm 4 mps 748 mmHg 75%
    05:00 +14°C° 0 mm 5 mps 748 mmHg 76%
    06:00 +14°C° 0 mm 5 mps 749 mmHg 76%
    07:00 +14°C° 0 mm 5 mps 749 mmHg 77%
    08:00 +16°C° 0 mm 5 mps 749 mmHg 74%
    09:00 +17°C° 0 mm 6 mps 749 mmHg 71%
    10:00 +20°C° 0 mm 6 mps 749 mmHg 68%
    11:00 +20°C° 0 mm 6 mps 749 mmHg 66%
    12:00 +21°C° 0 mm 6 mps 749 mmHg 64%
    13:00 +22°C° 0 mm 6 mps 749 mmHg 62%
    14:00 +22°C° 0 mm 6 mps 749 mmHg 62%
    15:00 +23°C° 0 mm 5 mps 749 mmHg 62%
    16:00 +23°C° 0 mm 5 mps 749 mmHg 62%
    17:00 +22°C° 0 mm 5 mps 749 mmHg 67%
    18:00 +22°C° 0 mm 4 mps 749 mmHg 71%
    19:00 +21°C° 0 mm 3 mps 749 mmHg 75%
    20:00 +20°C° 0 mm 3 mps 749 mmHg 78%
    21:00 +18°C° 0 mm 3 mps 749 mmHg 81%
    22:00 +17°C° 0 mm 3 mps 749 mmHg 84%
    23:00 +16°C° 0 mm 3 mps 750 mmHg 83%
    Show more